[Date Prev][Date Next][Thread Prev][Thread Next] - [Date Index][Thread Index][Author Index]

MIR & ISS Keps 5-7




MIR
1 16609U 86017A   99127.33864001  .00010830  00000-0  90452-4 0  4752
2 16609  51.6581 192.9377 0007437  74.5711 285.6007 15.70634737754988
ISS
1 25544U 98067A   99126.89496633  .00020579  00000-0  24856-3 0  5521
2 25544  51.5940  45.8702 0005179  74.1484 286.0071 15.60689634 26158


----
Via the sarex mailing list at AMSAT.ORG courtesy of AMSAT-NA.
To unsubscribe, send "unsubscribe sarex" to Majordomo@amsat.org



AMSAT Top AMSAT Home